[[{"header":{"parameterUnit":"m.s-1","parameterCategory":1,"la1":30.2991,"la2":30.254,"lo1":-89.0895,"lo2":-89.0444,"dy":0.0017,"dx":0.0017,"nx":28,"ny":28,"refTime":"2024-12-01T09:00:00:Z","depth":0,"parameterNumber":2,"parameterNumberName":"U-component_of_WINDS"},"data":[0,0,0,0,0,0,0,0,0,0,0,0,0,0,0,0,0,0,0,0,0,0,0,0,0,0,0,0,0,0,0,0,0,0,0,0,0,0,0,0,0,0,0,0,0,0,0,0,0,0,0,0,0,0,0,0,0,0,-1.8093,-1.8094,0,-1.8145,-1.8146,-1.8146,-1.8049,-1.8046,-1.8043,-1.804,-1.8095,-1.81,-1.8104,0,0,0,0,0,0,0,0,0,0,0,0,0,-1.7911,-1.7915,-1.8093,-1.8094,-1.8094,-1.8145,-1.8146,-1.8146,-1.805,-1.8046,-1.8042,-1.8038,-1.8094,-1.8099,-1.8105,0,0,0,0,0,0,0,0,0,0,0,0,0,-1.798,-1.7916,-1.8093,-1.8052,-1.8049,-1.8145,-1.8146,-1.8147,-1.8051,-1.8046,-1.8041,-1.8036,-1.8092,-1.8099,-1.8105,-1.8244,0,0,-1.8126,-1.8129,0,0,0,0,0,0,0,0,-1.7976,-1.7986,-1.8058,-1.8055,-1.8052,-1.8086,-1.8102,-1.8179,-1.8052,-1.805,-1.804,-1.8034,-1.8096,-1.8102,-1.8123,-1.8247,-1.8249,-1.8127,-1.8131,-1.8133,-1.8135,0,0,0,0,0,0,0,-1.7971,-1.7984,-1.8114,-1.8059,-1.8055,-1.8032,-1.8036,-1.8116,-1.81,-1.805,-1.8043,-1.805,-1.8094,-1.8117,-1.8123,-1.825,-1.8126,-1.8132,-1.8136,-1.8139,-1.8489,-1.8494,0,0,0,0,0,0,-1.7971,-1.798,-1.8112,-1.8115,-1.8001,-1.8039,-1.8044,-1.808,-1.8099,-1.8097,-1.8054,-1.8046,-1.8107,-1.8116,-1.8125,-1.8288,-1.8133,-1.814,-1.8144,-1.8484,-1.849,-1.8496,0,0,0,0,0,0,-1.7968,-1.7984,-1.811,-1.8046,-1.806,-1.8047,-1.8088,-1.8083,-1.8106,-1.8102,-1.8099,-1.8081,-1.8104,-1.8115,-1.8215,-1.8289,-1.8143,-1.8149,-1.8477,-1.8486,-1.8493,-1.8617,0,0,0,0,0,0,-1.7963,-1.7983,-1.8036,-1.8048,-1.8064,-1.8199,-1.8093,-1.8088,-1.8118,-1.8107,-1.8126,-1.8124,-1.8101,-1.8205,-1.8221,-1.8296,-1.8154,-1.8471,-1.8481,-1.849,-1.8606,-1.8628,-1.8646,0,0,0,0,0,-1.7957,-1.8069,-1.8039,-1.8056,-1.8129,-1.8204,-1.8213,-1.8183,-1.8124,-1.8177,-1.8174,-1.8124,-1.8278,-1.8216,-1.8234,-1.8311,-1.8466,-1.8478,-1.849,-1.8597,-1.8623,-1.8646,0,0,0,0,0,0,-1.8068,-1.807,-1.8037,-1.8156,-1.818,-1.8187,-1.8253,-1.8212,-1.8254,-1.8242,-1.8204,-1.8209,-1.8316,-1.8323,-1.8254,-1.8445,-1.8362,-1.8378,-1.8437,-1.8463,-1.8483,-1.8479,-1.816,0,0,0,0,0,-1.8106,-1.8166,-1.8165,-1.827,-1.8284,-1.8267,-1.8298,-1.8272,-1.8296,-1.8306,-1.831,-1.8336,-1.839,-1.8426,-1.8476,-1.8605,-1.8608,-1.8667,-1.8687,-1.8704,-1.8719,-1.8787,-1.8814,-1.8534,-1.8534,-1.8534,0,0,-1.8186,-1.8195,-1.8235,-1.8293,-1.8308,-1.8371,-1.8276,-1.8347,-1.8393,-1.8317,-1.8411,-1.8415,-1.8441,-1.8556,-1.8607,-1.8565,-1.8796,-1.8719,-1.8732,-1.8738,-1.8802,-1.8829,-1.8852,-1.8542,-1.8541,-1.854,0,0,-1.8364,-1.8376,-1.8465,-1.8483,-1.8507,-1.8494,-1.8516,-1.8528,-1.8528,-1.8621,-1.8565,-1.8619,-1.8713,-1.8734,-1.8757,-1.894,-1.8896,-1.8957,-1.9064,-1.9132,-1.9154,-1.9173,-1.9239,-1.9263,-1.8972,-1.8972,-1.8972,0,-1.8461,-1.8553,-1.8517,-1.8591,-1.8618,-1.855,-1.8641,-1.8659,-1.8699,-1.872,-1.8672,-1.8787,-1.88,-1.8918,-1.8963,-1.8983,-1.9007,-1.8956,-1.9153,-1.9172,-1.919,-1.9252,-1.9277,-1.8979,-1.8979,-1.8978,-1.8977,0,-1.8671,-1.8735,-1.8804,-1.8843,-1.8878,-1.896,-1.8937,-1.8976,-1.8947,-1.8939,-1.9035,-1.9047,-1.9098,-1.9123,-1.9097,-1.9238,-1.9212,-1.9159,-1.9075,-1.9224,-1.9282,-1.9306,-1.899,-1.8987,-1.8985,-1.8983,0,0,-1.8922,-1.8938,-1.8965,-1.8981,-1.9002,-1.9052,-1.913,-1.9178,-1.9213,-1.9242,-1.9308,-1.9387,-1.9338,-1.9364,-1.9339,-1.9398,-1.9543,-1.9338,-1.9338,-1.9376,-1.97,-1.974,-1.9768,-1.9512,-1.9517,-1.952,-1.9698,0,-1.9099,-1.9234,-1.9203,-1.9336,-1.9396,-1.9331,-1.94,-1.942,-1.9415,-1.9464,-1.9458,-1.9516,-1.9446,-1.9461,-1.9517,-1.9513,-1.9607,-1.95,-1.9573,-1.9576,-1.957,-1.9798,-1.9841,-2.0009,-1.972,-1.9724,-1.9727,0,-1.9325,-1.9361,-1.95,-1.9511,-1.9534,-1.9596,-1.9637,-1.9686,-1.9707,-1.9699,-1.9727,-1.9689,-1.9767,-1.968,-1.9787,-1.9715,-1.9742,-1.9745,-1.9751,-1.9758,-1.9662,-1.9812,-2.0061,-2.0087,-1.9762,-1.9759,-1.9757,0,-1.9495,-1.9579,-1.9673,-1.9689,-1.9703,-1.9748,-1.9756,-1.9773,-1.9803,-1.9839,-1.9859,-1.9904,-1.9929,-1.9964,-1.9939,-1.9879,-2.005,-1.9962,-2.0046,-2.0047,-2.0087,-2.0085,-2.0344,-2.0103,-2.0103,-2.0102,-2.0102,0,-1.9697,-1.9785,-1.9749,-1.9807,-1.9904,-1.9866,-1.9963,-1.9963,-1.9978,-2.0035,-1.9982,-2.0037,-2.0,-2.0052,-2.0033,-2.0124,-2.0136,-2.0131,-2.0126,-2.0137,-2.0138,-2.0156,-2.0144,-2.0109,-2.0107,-2.0106,-2.0105,0,-1.9904,-1.9884,-1.9982,-1.9987,-1.999,-2.0061,-2.0065,-2.0119,-2.0108,-2.0181,-2.0196,-2.018,-2.0238,-2.0216,-2.0278,-2.0265,-2.0382,-2.036,-2.0375,-2.037,-2.0455,-2.0448,-2.0737,-2.0773,-2.0508,-2.051,-2.0512,0,-2.0035,-2.0101,-2.0112,-2.0146,-2.0158,-2.0213,-2.0244,-2.0209,-2.0243,-2.0271,-2.0322,-2.0375,-2.0415,-2.0511,-2.0505,-2.0552,-2.0532,-2.0629,-2.0539,-2.0547,-2.0534,-2.0531,-2.0537,-2.0648,-2.0651,-2.0654,-2.0656,0,-2.027,-2.0256,-2.0301,-2.0344,-2.0381,-2.0413,-2.044,-2.0471,-2.0438,-2.0479,-2.0537,-2.0568,-2.063,-2.0684,-2.0725,-2.0733,-2.069,-2.0684,-2.0706,-2.0719,-2.0725,-2.0723,-2.0425,-2.0678,-2.0676,-2.0674,-2.0673,-2.0672,-2.0443,-2.0498,-2.0515,-2.0567,-2.0583,-2.061,-2.066,-2.0655,-2.0703,-2.075,-2.0727,-2.0794,-2.0812,-2.0863,-2.0877,-2.093,-2.0891,-2.0924,-2.0932,-2.0941,-2.0952,-2.0716,-2.0937,-2.0936,-2.0936,-2.0935,-2.0935,0,-2.0675,-2.0682,-2.073,-2.0769,-2.0811,-2.0764,-2.0791,-2.0829,-2.0889,-2.0909,-2.095,-2.1016,-2.1067,-2.1064,-2.1111,-2.1153,-2.1134,-2.1167,-2.1164,-2.1166,-2.0983,-2.0959,-2.1181,-2.1181,-2.1181,-2.1181,-2.1181,-2.1181,-2.0801,-2.0892,-2.088,-2.0978,-2.0984,-2.1049,-2.1068,-2.1092,-2.1108,-2.1184,-2.1226,-2.1223,-2.1234,-2.1281,-2.1326,-2.1324,-2.1344,-2.1384,-2.1375,-2.1204,-2.1179,-2.1156,-2.1134,-2.1389,-2.1389,-2.1554,-2.1555,-2.1556]},{"header":{"parameterUnit":"m.s-1","parameterCategory":1,"la1":30.2991,"la2":30.254,"lo1":-89.0895,"lo2":-89.0444,"dy":0.0017,"dx":0.0017,"nx":28,"ny":28,"refTime":"2024-12-01T09:00:00:Z","depth":0,"parameterNumber":3,"parameterNumberName":"V-component_of_WINDS"},"data":[0,0,0,0,0,0,0,0,0,0,0,0,0,0,0,0,0,0,0,0,0,0,0,0,0,0,0,0,0,0,0,0,0,0,0,0,0,0,0,0,0,0,0,0,0,0,0,0,0,0,0,0,0,0,0,0,0,0,-3.6017,-3.6018,0,-3.6065,-3.6065,-3.6066,-3.6004,-3.6002,-3.5999,-3.5997,-3.6043,-3.6046,-3.605,0,0,0,0,0,0,0,0,0,0,0,0,0,-3.5869,-3.5872,-3.6017,-3.6018,-3.6018,-3.6065,-3.6065,-3.6066,-3.6004,-3.6002,-3.5999,-3.5996,-3.6042,-3.6046,-3.605,0,0,0,0,0,0,0,0,0,0,0,0,0,-3.5927,-3.5873,-3.6017,-3.5993,-3.5992,-3.6064,-3.6065,-3.6066,-3.6005,-3.6002,-3.5998,-3.5995,-3.6041,-3.6046,-3.605,-3.6148,0,0,-3.6066,-3.6068,0,0,0,0,0,0,0,0,-3.5924,-3.5932,-3.5996,-3.5995,-3.5993,-3.6025,-3.603,-3.6093,-3.6006,-3.6,-3.5997,-3.5993,-3.604,-3.6044,-3.6061,-3.615,-3.6152,-3.6066,-3.6069,-3.6071,-3.6073,0,0,0,0,0,0,0,-3.592,-3.593,-3.6036,-3.5997,-3.5995,-3.5979,-3.5983,-3.6042,-3.6038,-3.6,-3.5996,-3.6002,-3.6038,-3.6056,-3.6061,-3.6153,-3.6066,-3.607,-3.6073,-3.6075,-3.6323,-3.6326,0,0,0,0,0,0,-3.5919,-3.5927,-3.6034,-3.6037,-3.595,-3.5984,-3.5989,-3.6018,-3.6037,-3.6037,-3.6005,-3.5999,-3.6049,-3.6056,-3.6063,-3.6177,-3.6071,-3.6076,-3.6079,-3.6319,-3.6323,-3.6327,0,0,0,0,0,0,-3.5916,-3.5929,-3.6032,-3.5981,-3.5993,-3.599,-3.6023,-3.6021,-3.6039,-3.6041,-3.604,-3.6024,-3.6047,-3.6056,-3.6127,-3.6178,-3.6078,-3.6082,-3.6315,-3.632,-3.6325,-3.6407,0,0,0,0,0,0,-3.5912,-3.5928,-3.5967,-3.5982,-3.5996,-3.6098,-3.6027,-3.6024,-3.6048,-3.604,-3.6059,-3.6058,-3.6045,-3.612,-3.6132,-3.6183,-3.6086,-3.631,-3.6317,-3.6324,-3.64,-3.6415,-3.6427,0,0,0,0,0,-3.5907,-3.5987,-3.5969,-3.5982,-3.6044,-3.6101,-3.6108,-3.6092,-3.6052,-3.609,-3.6091,-3.6058,-3.617,-3.6128,-3.6141,-3.6194,-3.6307,-3.6315,-3.6323,-3.6394,-3.6412,-3.6427,0,0,0,0,0,0,-3.5977,-3.5989,-3.5969,-3.6057,-3.6078,-3.609,-3.6137,-3.6112,-3.6144,-3.6136,-3.6113,-3.6118,-3.6194,-3.6201,-3.6153,-3.6288,-3.6232,-3.6243,-3.6281,-3.6298,-3.6312,-3.6308,-3.609,0,0,0,0,0,-3.6003,-3.6049,-3.6057,-3.6134,-3.6145,-3.614,-3.6164,-3.6149,-3.617,-3.6179,-3.6185,-3.6206,-3.6245,-3.6272,-3.6309,-3.6401,-3.6403,-3.6443,-3.6457,-3.6468,-3.6478,-3.6525,-3.6543,-3.6354,-3.6354,-3.6354,0,0,-3.6056,-3.6068,-3.6099,-3.6148,-3.6163,-3.621,-3.6148,-3.62,-3.6235,-3.6186,-3.6254,-3.626,-3.6281,-3.6363,-3.6399,-3.6371,-3.653,-3.6478,-3.6487,-3.6491,-3.6535,-3.6553,-3.6569,-3.636,-3.6359,-3.6358,0,0,-3.6178,-3.6192,-3.6257,-3.6274,-3.6297,-3.6292,-3.6308,-3.6324,-3.6326,-3.6394,-3.6358,-3.6398,-3.6467,-3.6484,-3.6501,-3.6628,-3.6598,-3.664,-3.6711,-3.6758,-3.6773,-3.6786,-3.683,-3.6846,-3.665,-3.665,-3.665,0,-3.6241,-3.6312,-3.6294,-3.6349,-3.6371,-3.633,-3.6395,-3.6411,-3.6445,-3.646,-3.6429,-3.6514,-3.6526,-3.661,-3.6641,-3.6657,-3.6672,-3.6638,-3.6772,-3.6785,-3.6797,-3.6839,-3.6855,-3.6655,-3.6654,-3.6654,-3.6653,0,-3.6388,-3.6437,-3.6487,-3.6521,-3.6549,-3.6609,-3.6598,-3.6628,-3.6611,-3.6609,-3.6678,-3.669,-3.6728,-3.6747,-3.6731,-3.6829,-3.681,-3.6776,-3.6719,-3.682,-3.6859,-3.6875,-3.6662,-3.666,-3.6659,-3.6657,0,0,-3.6555,-3.6578,-3.6597,-3.6611,-3.6634,-3.6671,-3.6728,-3.6766,-3.6791,-3.6816,-3.6862,-3.6922,-3.689,-3.6909,-3.6894,-3.6935,-3.7033,-3.6895,-3.6896,-3.692,-3.714,-3.7165,-3.7184,-3.7014,-3.7017,-3.7019,-3.7138,0,-3.6675,-3.6775,-3.676,-3.6856,-3.6901,-3.6862,-3.6912,-3.693,-3.693,-3.6966,-3.6965,-3.7008,-3.6963,-3.6974,-3.7013,-3.7013,-3.7077,-3.7004,-3.7055,-3.7057,-3.7051,-3.7205,-3.7232,-3.7343,-3.7153,-3.7155,-3.7157,0,-3.683,-3.686,-3.6961,-3.6976,-3.6994,-3.7039,-3.7071,-3.7108,-3.7127,-3.7124,-3.7146,-3.7123,-3.7178,-3.7121,-3.7196,-3.7147,-3.7167,-3.717,-3.7174,-3.7177,-3.7113,-3.7211,-3.7378,-3.7395,-3.7181,-3.7179,-3.7178,0,-3.694,-3.7007,-3.7075,-3.7089,-3.7108,-3.714,-3.7149,-3.7165,-3.7189,-3.7217,-3.7232,-3.7266,-3.7284,-3.7311,-3.7297,-3.7257,-3.7374,-3.7316,-3.7372,-3.7373,-3.7398,-3.7397,-3.757,-3.7413,-3.7412,-3.7412,-3.7412,0,-3.7076,-3.7139,-3.7125,-3.7167,-3.7236,-3.7217,-3.7285,-3.7289,-3.7304,-3.7345,-3.7313,-3.7352,-3.7332,-3.7369,-3.7359,-3.7422,-3.7431,-3.7429,-3.7425,-3.7431,-3.7432,-3.7443,-3.7435,-3.7416,-3.7415,-3.7415,-3.7414,0,-3.7211,-3.7205,-3.7276,-3.7288,-3.7293,-3.7343,-3.7352,-3.739,-3.7387,-3.744,-3.7451,-3.7446,-3.7488,-3.7477,-3.7523,-3.7515,-3.7595,-3.7582,-3.7589,-3.7585,-3.7641,-3.7636,-3.7828,-3.7851,-3.768,-3.7681,-3.7683,0,-3.7298,-3.7345,-3.7362,-3.7388,-3.74,-3.7442,-3.7465,-3.7448,-3.7474,-3.7499,-3.7534,-3.7573,-3.7604,-3.7672,-3.7672,-3.7706,-3.7693,-3.7758,-3.7698,-3.7702,-3.7693,-3.769,-3.7694,-3.777,-3.7772,-3.7773,-3.7775,0,-3.7453,-3.7447,-3.7483,-3.7517,-3.7547,-3.7573,-3.7596,-3.7618,-3.7603,-3.7633,-3.7676,-3.77,-3.7746,-3.7785,-3.7816,-3.7824,-3.7796,-3.7794,-3.7808,-3.7814,-3.7816,-3.7815,-3.762,-3.7789,-3.7788,-3.7787,-3.7786,-3.7785,-3.7565,-3.7605,-3.7623,-3.7664,-3.7679,-3.7702,-3.7738,-3.774,-3.7775,-3.7812,-3.78,-3.7848,-3.7865,-3.7904,-3.7916,-3.7952,-3.7928,-3.7949,-3.7954,-3.796,-3.7966,-3.7811,-3.7958,-3.7958,-3.7957,-3.7957,-3.7957,0,-3.7717,-3.7727,-3.7765,-3.7798,-3.783,-3.7802,-3.7826,-3.7854,-3.7897,-3.7915,-3.7946,-3.7994,-3.8031,-3.8034,-3.8068,-3.8097,-3.8085,-3.8107,-3.8104,-3.8106,-3.7987,-3.7971,-3.8116,-3.8116,-3.8116,-3.8116,-3.8116,-3.8116,-3.78,-3.7866,-3.7862,-3.7934,-3.7943,-3.7991,-3.8007,-3.8026,-3.804,-3.8096,-3.8127,-3.8129,-3.814,-3.8175,-3.8208,-3.8207,-3.8221,-3.8247,-3.8242,-3.813,-3.8115,-3.8099,-3.8084,-3.825,-3.825,-3.8357,-3.8358,-3.8359]}]]